Back to catalog

KOMPSAT-7

AliveScienceSSO
NORAD 66820·PAYLOAD·🇪🇺 EU

Launched Dec 1, 2025 from Guiana Space Centre

Loading…

Next Passes (next 24 hours)

TLE

FreshSource: Space-Track

Epoch: Sep 14, 2026, 14:37 UTC

1 66820U 25279A   26257.60935375  .00000794  00000-0  66450-4 0  9992
2 66820  97.7370 205.5901 0013736  71.8867 288.3851 15.01236647 43036

Track KOMPSAT-7 in real time with AllMySat

Download on the App Store